Voltar ao catálogo

STARLINK-33651

AtivoComunicaçõesVLEO
NORAD 63588·PAYLOAD·🇺🇸 United States

Lançado Apr 14, 2025 de Cape Canaveral Space Force Station

Loading…

Próximas Passagens (próximas 24 horas)

TLE

AtualizadoSource: CelesTrak SupGP

Época: Sep 14, 2026, 21:30 UTC

1 63588C 25076V   26257.89631944 -.00020704  00000+0 -74970-3 0  2577
2 63588  43.0036 333.1673 0001866 275.5498 202.9787 15.27596576    14

Acompanhe STARLINK-33651 em tempo real com AllMySat

Download on the App Store